PST,Max TemperatureF,Mean TemperatureF,Min TemperatureF,Max Dew PointF,MeanDew PointF,Min DewpointF,Max Humidity, Mean Humidity, Min Humidity, Max Sea Level PressureIn, Mean Sea Level PressureIn, Min Sea Level PressureIn, Max VisibilityMiles, Mean VisibilityMiles, Min VisibilityMiles, Max Wind SpeedMPH, Mean Wind SpeedMPH, Max Gust SpeedMPH,PrecipitationIn, CloudCover, Events, WindDirDegrees
2012-11-1,57,54,50,57,53,50,100,100,100,29.97,29.90,29.83,10,7,2,8,2,,0.00,8,Rain,213
2012-11-2,59,54,50,59,54,50,100,100,100,30.07,30.04,30.02,10,10,8,2,2,,0.00,7,Rain,139
2012-11-3,57,51,51,57,54,52,100,100,100,30.17,30.12,30.08,10,6,1,1,1,,0.00,8,Rain,130
2012-11-4,55,55,55,55,55,55,100,100,100,30.31,30.30,30.27,2,1,1,2,2,,0.00,8,Rain,26
2012-11-5,60,58,57,61,59,57,100,100,100,30.33,30.29,30.24,10,7,2,9,7,,0.00,8,,229
2012-11-6,60,55,50,61,56,50,100,100,100,30.09,30.05,30.02,10,10,10,13,5,20,0.00,6,,221
2012-11-7,55,52,46,50,48,46,100,89,77,30.17,30.14,30.10,10,10,10,8,7,,0.00,5,Rain,215
2012-11-8,50,44,39,48,44,39,100,96,87,29.84,29.80,29.76,10,10,10,7,2,,0.00,5,,144
2012-11-9,48,44,39,45,43,39,100,94,87,29.90,29.88,29.86,10,10,10,9,3,,0.00,5,,186
2012-11-10,44,40,37,41,40,37,100,91,81,30.18,30.12,30.04,10,10,8,8,3,,0.00,7,,194
2012-11-11,42,40,39,43,41,39,100,100,100,30.31,30.29,30.28,10,9,5,5,3,,0.00,8,Rain,103
2012-11-12,44,42,39,45,43,39,100,100,100,30.24,30.23,30.22,3,1,1,4,2,,0.00,8,Rain,99
2012-11-13,51,45,39,52,48,39,100,100,100,30.25,30.22,30.18,10,9,5,5,2,,0.00,8,,160
2012-11-14,53,50,46,54,51,46,100,100,100,30.31,30.28,30.26,10,8,2,4,2,,0.00,7,,82
2012-11-15,46,44,42,45,44,43,100,98,87,30.17,30.12,30.06,10,10,10,20,18,29,0.00,5,,59
2012-11-16,48,44,41,46,44,41,100,99,93,30.00,29.95,29.92,10,10,10,5,3,,0.00,8,,77
2012-11-17,44,42,41,45,43,41,100,100,100,29.74,29.69,29.62,10,6,2,8,2,,0.00,8,Rain,179
2012-11-18,44,43,42,45,44,43,100,100,100,29.89,29.83,29.75,10,8,3,4,2,,0.00,8,Rain,53
2012-11-19,51,48,46,52,49,46,100,100,100,29.67,29.63,29.59,10,5,1,13,3,21,0.00,8,Rain,227
2012-11-20,50,48,44,50,47,45,100,100,100,29.79,29.72,29.66,10,9,5,4,2,,0.00,8,Rain,174
2012-11-21,48,45,42,48,45,43,100,100,100,30.19,30.00,29.82,10,9,4,10,7,16,0.00,7,Rain,224
2012-11-22,46,42,39,46,43,39,100,100,100,30.41,30.38,30.35,10,10,10,10,3,16,0.00,7,,110
2012-11-23,42,38,37,43,40,37,100,100,100,30.31,30.26,30.16,10,7,2,2,2,,0.00,8,Rain,75
2012-11-24,51,50,46,52,49,46,100,99,94,30.24,30.22,30.20,10,10,9,9,6,,0.00,7,,222
2012-11-25,48,42,37,45,42,37,100,95,82,30.31,30.27,30.22,10,10,10,18,4,26,0.00,4,,92
2012-11-26,41,39,37,39,38,37,100,97,87,30.23,30.19,30.16,10,10,10,22,18,33,0.00,6,,60
2012-11-27,41,39,37,39,38,37,100,93,87,30.22,30.17,30.11,10,10,10,21,17,31,0.00,8,,54
2012-11-28,39,38,37,37,37,37,100,98,93,29.94,29.85,29.78,10,8,2,21,15,31,0.00,8,Rain,60
2012-11-29,39,38,37,39,39,37,100,100,100,29.79,29.74,29.69,10,8,3,6,2,,0.00,8,Rain,8
2012-11-30,46,42,39,46,43,39,100,100,100,29.58,29.57,29.56,10,7,2,6,3,,0.00,8,Rain,177